| time (UTC) | temp C | wind direction | speed KPH | gust KPH | rain 1hr cm | rain 24hr cm | rain mn cm | humidity % | barometer mb |
| 20260906204008 | 32 | 161 | 12.9 | 35.4 | 0.00 | 0.03 | 0.00 | 40 | 1013.9 |
| 20260906203506 | 32 | 131 | 16.1 | 37.0 | 0.00 | 0.03 | 0.00 | 40 | 1013.9 |
| 20260906202508 | 31 | 154 | 12.9 | 27.4 | 0.00 | 0.03 | 0.00 | 42 | 1014.1 |
| 20260906202007 | 31 | 146 | 14.5 | 45.1 | 0.00 | 0.03 | 0.00 | 42 | 1014.0 |
| 20260906201507 | 32 | 157 | 19.3 | 45.1 | 0.00 | 0.03 | 0.00 | 41 | 1014.2 |
| 20260906201006 | 32 | 172 | 11.3 | 27.4 | 0.00 | 0.03 | 0.00 | 44 | 1014.2 |
| 20260906200507 | 32 | 153 | 19.3 | 29.0 | 0.00 | 0.03 | 0.00 | 42 | 1014.3 |
| 20260906195507 | 32 | 178 | 19.3 | 29.0 | 0.00 | 0.03 | 0.00 | 43 | 1014.3 |
| 20260906195006 | 31 | 185 | 16.1 | 33.8 | 0.00 | 0.03 | 0.00 | 44 | 1014.4 |
| 20260906194507 | 31 | 170 | 20.9 | 33.8 | 0.00 | 0.03 | 0.00 | 43 | 1014.4 |
| 20260906194007 | 31 | 181 | 19.3 | 32.2 | 0.00 | 0.03 | 0.00 | 45 | 1014.5 |
| 20260906193508 | 31 | 176 | 17.7 | 29.0 | 0.00 | 0.03 | 0.00 | 46 | 1014.6 |
| 20260906192506 | 30 | 176 | 14.5 | 32.2 | 0.00 | 0.03 | 0.00 | 46 | 1014.8 |
| 20260906192007 | 31 | 161 | 19.3 | 35.4 | 0.00 | 0.03 | 0.00 | 46 | 1014.8 |
| 20260906191506 | 31 | 191 | 20.9 | 35.4 | 0.00 | 0.03 | 0.00 | 46 | 1015.1 |
| 20260906191007 | 31 | 155 | 20.9 | 35.4 | 0.00 | 0.03 | 0.00 | 46 | 1015.1 |
| 20260906190506 | 31 | 192 | 20.9 | 35.4 | 0.00 | 0.03 | 0.00 | 45 | 1015.2 |
| 20260906185506 | 30 | 186 | 19.3 | 37.0 | 0.00 | 0.03 | 0.00 | 46 | 1015.3 |
| 20260906185006 | 30 | 180 | 25.7 | 37.0 | 0.00 | 0.03 | 0.00 | 47 | 1015.4 |
| 20260906184506 | 30 | 209 | 16.1 | 37.0 | 0.00 | 0.03 | 0.00 | 47 | 1015.5 |
| 20260906184008 | 30 | 174 | 16.1 | 37.0 | 0.00 | 0.03 | 0.00 | 47 | 1015.5 |
| 20260906183506 | 30 | 181 | 22.5 | 37.0 | 0.00 | 0.03 | 0.00 | 47 | 1015.6 |
| 20260906183006 | 30 | 213 | 20.9 | 37.0 | 0.00 | 0.03 | 0.00 | 49 | 1015.6 |
| 20260906182007 | 29 | 168 | 25.7 | 37.0 | 0.00 | 0.03 | 0.00 | 50 | 1015.5 |
| 20260906181507 | 30 | 177 | 24.1 | 37.0 | 0.00 | 0.03 | 0.00 | 50 | 1015.7 |
| 20260906181006 | 29 | 165 | 25.7 | 38.6 | 0.00 | 0.03 | 0.00 | 51 | 1015.8 |
| 20260906180507 | 28 | 167 | 22.5 | 38.6 | 0.00 | 0.03 | 0.00 | 52 | 1015.9 |
| 20260906180006 | 28 | 162 | 29.0 | 38.6 | 0.00 | 0.03 | 0.00 | 54 | 1015.9 |
| 20260906175505 | 28 | 168 | 22.5 | 37.0 | 0.00 | 0.03 | 0.00 | 54 | 1016.0 |
| 20260906175005 | 28 | 172 | 20.9 | 35.4 | 0.00 | 0.03 | 0.00 | 55 | 1016.1 |
| 20260906174505 | 28 | 179 | 25.7 | 38.6 | 0.00 | 0.03 | 0.00 | 55 | 1016.1 |
| 20260906174006 | 28 | 195 | 25.7 | 38.6 | 0.00 | 0.03 | 0.00 | 55 | 1016.3 |
| 20260906173506 | 28 | 166 | 27.4 | 41.8 | 0.00 | 0.03 | 0.00 | 56 | 1016.3 |
| 20260906173006 | 28 | 180 | 25.7 | 45.1 | 0.00 | 0.03 | 0.00 | 57 | 1016.5 |
| 20260906172007 | 27 | 168 | 25.7 | 48.3 | 0.00 | 0.03 | 0.00 | 58 | 1016.6 |
| 20260906171506 | 27 | 172 | 27.4 | 41.8 | 0.00 | 0.03 | 0.00 | 58 | 1016.6 |
| 20260906171006 | 27 | 156 | 25.7 | 40.2 | 0.00 | 0.03 | 0.00 | 59 | 1016.9 |
| 20260906170506 | 27 | 172 | 24.1 | 40.2 | 0.00 | 0.03 | 0.00 | 62 | 1016.9 |
| 20260906165507 | 27 | 157 | 24.1 | 48.3 | 0.00 | 0.03 | 0.00 | 62 | 1016.8 |
| 20260906165006 | 26 | 181 | 32.2 | 48.3 | 0.00 | 0.03 | 0.00 | 64 | 1016.9 |
| 20260906164506 | 26 | 185 | 27.4 | 38.6 | 0.00 | 0.03 | 0.00 | 66 | 1017.0 |
| 20260906164006 | 26 | 170 | 25.7 | 38.6 | 0.00 | 0.03 | 0.00 | 63 | 1017.1 |
| 20260906163507 | 26 | 159 | 27.4 | 38.6 | 0.00 | 0.03 | 0.00 | 65 | 1017.3 |
| 20260906163006 | 26 | 164 | 27.4 | 38.6 | 0.00 | 0.03 | 0.00 | 64 | 1017.4 |
| 20260906162506 | 26 | 149 | 22.5 | 37.0 | 0.00 | 0.03 | 0.00 | 65 | 1017.6 |
| 20260906162006 | 26 | 152 | 19.3 | 29.0 | 0.00 | 0.03 | 0.00 | 64 | 1017.6 |
| 20260906161506 | 26 | 175 | 20.9 | 29.0 | 0.00 | 0.03 | 0.00 | 66 | 1017.8 |
| 20260906160505 | 25 | 157 | 9.7 | 19.3 | 0.00 | 0.03 | 0.00 | 68 | 1017.8 |
| 20260906160006 | 25 | 167 | 11.3 | 24.1 | 0.00 | 0.03 | 0.00 | 69 | 1017.8 |
| 20260906155505 | 25 | 187 | 16.1 | 24.1 | 0.00 | 0.03 | 0.00 | 72 | 1017.8 |
| 20260906155006 | 25 | 152 | 12.9 | 19.3 | 0.00 | 0.03 | 0.00 | 70 | 1017.8 |
| 20260906152005 | 23 | 159 | 11.3 | 19.3 | 0.00 | 0.03 | 0.00 | 74 | 1017.6 |
| 20260906151505 | 23 | 166 | 11.3 | 19.3 | 0.00 | 0.03 | 0.00 | 74 | 1017.6 |
| 20260906151005 | 23 | 176 | 9.7 | 19.3 | 0.00 | 0.03 | 0.00 | 77 | 1017.5 |
| 20260906150506 | 22 | 150 | 11.3 | 22.5 | 0.00 | 0.03 | 0.00 | 78 | 1017.5 |
| 20260906150006 | 23 | 153 | 14.5 | 22.5 | 0.00 | 0.03 | 0.00 | 76 | 1017.5 |
| 20260906145505 | 22 | 177 | 11.3 | 22.5 | 0.00 | 0.03 | 0.00 | 79 | 1017.5 |
| 20260906144505 | 21 | 143 | 9.7 | 16.1 | 0.00 | 0.03 | 0.00 | 82 | 1017.6 |
| 20260906143505 | 21 | 138 | 9.7 | 19.3 | 0.00 | 0.03 | 0.00 | 81 | 1017.6 |
| 20260906143006 | 21 | 131 | 9.7 | 19.3 | 0.00 | 0.03 | 0.00 | 80 | 1017.5 |
| 20260906142507 | 21 | 160 | 12.9 | 22.5 | 0.00 | 0.03 | 0.00 | 80 | 1017.3 |
| 20260906142005 | 21 | 153 | 12.9 | 22.5 | 0.00 | 0.03 | 0.00 | 82 | 1017.1 |
| 20260906141505 | 21 | 153 | 14.5 | 20.9 | 0.00 | 0.03 | 0.00 | 82 | 1017.1 |
| 20260906141005 | 20 | 152 | 11.3 | 16.1 | 0.00 | 0.03 | 0.00 | 83 | 1017.1 |
| 20260906140505 | 20 | 148 | 8.0 | 11.3 | 0.00 | 0.03 | 0.00 | 84 | 1017.4 |
| 20260906140005 | 20 | 161 | 8.0 | 11.3 | 0.00 | 0.03 | 0.00 | 84 | 1017.4 |
| 20260906135505 | 20 | 143 | 8.0 | 14.5 | 0.00 | 0.03 | 0.00 | 85 | 1017.3 |
| 20260906135004 | 20 | 89 | 4.8 | 14.5 | 0.00 | 0.03 | 0.00 | 85 | 1017.3 |
| 20260906134504 | 20 | 143 | 6.4 | 14.5 | 0.00 | 0.03 | 0.00 | 85 | 1017.2 |
| 20260906134005 | 20 | 177 | 6.4 | 19.3 | 0.00 | 0.03 | 0.00 | 87 | 1017.1 |
| 20260906133505 | 19 | 189 | 4.8 | 19.3 | 0.00 | 0.03 | 0.00 | 88 | 1016.8 |
| 20260906133006 | 18 | 178 | 12.9 | 19.3 | 0.00 | 0.03 | 0.00 | 89 | 1016.7 |
| 20260906132505 | 18 | 167 | 11.3 | 22.5 | 0.00 | 0.03 | 0.00 | 92 | 1016.8 |
| 20260906132004 | 18 | 187 | 11.3 | 22.5 | 0.00 | 0.03 | 0.00 | 93 | 1016.7 |
| 20260906131504 | 17 | 181 | 14.5 | 19.3 | 0.00 | 0.03 | 0.00 | 94 | 1016.4 |
| 20260906130506 | 17 | 188 | 9.7 | 14.5 | 0.00 | 0.03 | 0.00 | 93 | 1016.7 |
| 20260906130005 | 17 | 179 | 9.7 | 16.1 | 0.00 | 0.03 | 0.00 | 93 | 1016.6 |
| 20260906125505 | 17 | 192 | 11.3 | 19.3 | 0.00 | 0.03 | 0.03 | 93 | 1016.3 |
| 20260906125004 | 17 | 188 | 14.5 | 19.3 | 0.00 | 0.03 | 0.03 | 92 | 1016.2 |
| 20260906124506 | 17 | 182 | 12.9 | 20.9 | 0.00 | 0.03 | 0.03 | 93 | 1016.1 |
| 20260906124004 | 17 | 189 | 14.5 | 20.9 | 0.00 | 0.03 | 0.03 | 93 | 1016.1 |
| 20260906123505 | 17 | 192 | 14.5 | 20.9 | 0.00 | 0.03 | 0.03 | 92 | 1016.1 |
| 20260906123007 | 17 | 188 | 11.3 | 20.9 | 0.00 | 0.03 | 0.03 | 92 | 1016.0 |
| 20260906122505 | 17 | 191 | 14.5 | 20.9 | 0.00 | 0.03 | 0.03 | 92 | 1015.9 |
| 20260906122007 | 16 | 188 | 16.1 | 22.5 | 0.00 | 0.03 | 0.03 | 92 | 1015.8 |
| 20260906121505 | 17 | 187 | 16.1 | 22.5 | 0.00 | 0.03 | 0.03 | 92 | 1015.9 |
| 20260906120505 | 16 | 194 | 12.9 | 16.1 | 0.00 | 0.03 | 0.03 | 92 | 1015.9 |
| 20260906120005 | 17 | 201 | 12.9 | 16.1 | 0.00 | 0.03 | 0.03 | 92 | 1016.1 |
| 20260906115506 | 17 | 209 | 11.3 | 16.1 | 0.00 | 0.03 | 0.03 | 92 | 1016.0 |
| 20260906115004 | 17 | 186 | 11.3 | 20.9 | 0.00 | 0.03 | 0.03 | 92 | 1016.0 |
| 20260906114504 | 17 | 178 | 14.5 | 20.9 | 0.00 | 0.03 | 0.03 | 92 | 1016.0 |
| 20260906114006 | 17 | 169 | 14.5 | 19.3 | 0.00 | 0.03 | 0.03 | 92 | 1016.0 |
| 20260906113505 | 17 | 163 | 9.7 | 14.5 | 0.00 | 0.03 | 0.03 | 92 | 1016.2 |
| 20260906113006 | 17 | 145 | 9.7 | 16.1 | 0.00 | 0.03 | 0.03 | 92 | 1016.1 |
| 20260906112505 | 17 | 160 | 9.7 | 16.1 | 0.00 | 0.03 | 0.03 | 92 | 1016.1 |
| 20260906112005 | 17 | 154 | 11.3 | 19.3 | 0.00 | 0.03 | 0.03 | 93 | 1016.1 |
| 20260906111505 | 17 | 151 | 11.3 | 19.3 | 0.00 | 0.03 | 0.03 | 93 | 1016.1 |
| 20260906111005 | 17 | 150 | 11.3 | 19.3 | 0.00 | 0.03 | 0.03 | 93 | 1016.2 |
| 20260906110004 | 17 | 159 | 12.9 | 19.3 | 0.00 | 0.03 | 0.03 | 93 | 1016.3 |
| 20260906105004 | 17 | 152 | 11.3 | 16.1 | 0.00 | 0.03 | 0.03 | 94 | 1016.4 |
| 20260906104005 | 17 | 151 | 9.7 | 12.9 | 0.00 | 0.03 | 0.03 | 94 | 1016.4 |
| 20260906103504 | 17 | 146 | 11.3 | 12.9 | 0.00 | 0.03 | 0.03 | 94 | 1016.5 |
| 20260906102504 | 17 | 101 | 8.0 | 12.9 | 0.00 | 0.03 | 0.03 | 92 | 1016.3 |
| 20260906102005 | 17 | 86 | 9.7 | 14.5 | 0.00 | 0.03 | 0.03 | 92 | 1016.2 |
| 20260906101004 | 17 | 43 | 11.3 | 14.5 | 0.00 | 0.03 | 0.03 | 91 | 1016.2 |
| 20260906100504 | 17 | 58 | 9.7 | 12.9 | 0.00 | 0.03 | 0.03 | 91 | 1016.2 |
| 20260906095504 | 17 | 46 | 11.3 | 14.5 | 0.00 | 0.03 | 0.03 | 90 | 1016.1 |
| 20260906095004 | 17 | 96 | 8.0 | 14.5 | 0.00 | 0.03 | 0.03 | 91 | 1015.9 |
| 20260906094507 | 17 | 99 | 9.7 | 14.5 | 0.00 | 0.03 | 0.03 | 90 | 1015.9 |
| 20260906094004 | 17 | 88 | 9.7 | 20.9 | 0.00 | 0.03 | 0.03 | 90 | 1015.8 |
| 20260906093504 | 17 | 126 | 11.3 | 20.9 | 0.00 | 0.03 | 0.03 | 90 | 1015.6 |
| 20260906093004 | 17 | 121 | 14.5 | 19.3 | 0.00 | 0.03 | 0.03 | 90 | 1015.4 |
| 20260906092504 | 17 | 126 | 12.9 | 20.9 | 0.00 | 0.03 | 0.03 | 89 | 1015.6 |
| 20260906092005 | 17 | 103 | 14.5 | 20.9 | 0.00 | 0.03 | 0.03 | 89 | 1015.8 |
| 20260906091504 | 17 | 111 | 11.3 | 19.3 | 0.00 | 0.03 | 0.03 | 89 | 1015.9 |
| 20260906091005 | 17 | 149 | 9.7 | 14.5 | 0.00 | 0.03 | 0.03 | 88 | 1016.0 |
| 20260906090504 | 17 | 142 | 9.7 | 20.9 | 0.00 | 0.03 | 0.03 | 88 | 1016.0 |
| 20260906090005 | 17 | 125 | 11.3 | 24.1 | 0.00 | 0.03 | 0.03 | 88 | 1015.9 |
| 20260906085504 | 17 | 92 | 14.5 | 25.7 | 0.00 | 0.03 | 0.03 | 88 | 1015.9 |
| 20260906085005 | 17 | 82 | 17.7 | 27.4 | 0.00 | 0.03 | 0.03 | 87 | 1015.8 |
| 20260906084504 | 17 | 86 | 19.3 | 32.2 | 0.00 | 0.03 | 0.03 | 87 | 1015.7 |
| 20260906084005 | 17 | 78 | 24.1 | 32.2 | 0.00 | 0.03 | 0.03 | 87 | 1015.6 |
| 20260906083504 | 17 | 85 | 19.3 | 32.2 | 0.00 | 0.03 | 0.03 | 86 | 1015.8 |
| 20260906082004 | 18 | 73 | 19.3 | 32.2 | 0.00 | 0.03 | 0.03 | 83 | 1015.7 |
| 20260906081504 | 18 | 64 | 22.5 | 41.8 | 0.00 | 0.03 | 0.03 | 82 | 1015.8 |
| 20260906080504 | 18 | 53 | 25.7 | 48.3 | 0.00 | 0.03 | 0.03 | 79 | 1015.9 |
| 20260906080004 | 18 | 49 | 33.8 | 48.3 | 0.00 | 0.03 | 0.03 | 78 | 1016.0 |
| 20260906075505 | 18 | 41 | 33.8 | 46.7 | 0.00 | 0.03 | 0.03 | 79 | 1016.0 |
| 20260906075004 | 18 | 40 | 29.0 | 45.1 | 0.00 | 0.03 | 0.03 | 79 | 1016.2 |
| 20260906074504 | 18 | 38 | 27.4 | 45.1 | 0.00 | 0.03 | 0.03 | 79 | 1016.3 |
| 20260906074005 | 18 | 40 | 27.4 | 38.6 | 0.00 | 0.03 | 0.03 | 80 | 1016.4 |
| 20260906073505 | 18 | 40 | 25.7 | 51.5 | 0.00 | 0.03 | 0.03 | 80 | 1016.4 |
| 20260906073004 | 18 | 44 | 30.6 | 51.5 | 0.00 | 0.03 | 0.03 | 80 | 1016.6 |
| 20260906072505 | 18 | 38 | 25.7 | 48.3 | 0.00 | 0.03 | 0.03 | 80 | 1016.7 |
| 20260906072009 | 18 | 36 | 29.0 | 48.3 | 0.00 | 0.03 | 0.03 | 78 | 1016.7 |
| 20260906071509 | 18 | 37 | 29.0 | 48.3 | 0.00 | 0.03 | 0.03 | 78 | 1016.7 |
| 20260906071011 | 18 | 34 | 27.4 | 46.7 | 0.00 | 0.03 | 0.03 | 80 | 1016.8 |
| 20260906070509 | 18 | 24 | 29.0 | 49.9 | 0.00 | 0.03 | 0.03 | 81 | 1016.7 |
| 20260906070009 | 18 | 24 | 33.8 | 51.5 | 0.00 | 0.03 | 0.03 | 81 | 1016.6 |
| 20260906065511 | 18 | 27 | 37.0 | 51.5 | 0.00 | 0.03 | 0.03 | 79 | 1016.6 |
| 20260906065010 | 18 | 27 | 33.8 | 46.7 | 0.00 | 0.03 | 0.03 | 78 | 1016.8 |
| 20260906064509 | 18 | 18 | 29.0 | 51.5 | 0.00 | 0.03 | 0.03 | 79 | 1016.8 |
| 20260906064010 | 19 | 19 | 25.7 | 51.5 | 0.00 | 0.03 | 0.03 | 78 | 1016.9 |
| 20260906063510 | 19 | 16 | 33.8 | 61.2 | 0.00 | 0.03 | 0.03 | 77 | 1016.7 |
| 20260906063010 | 18 | 20 | 35.4 | 66.0 | 0.03 | 0.03 | 0.03 | 78 | 1016.9 |
| 20260906062009 | 18 | 32 | 30.6 | 61.2 | 0.03 | 0.03 | 0.03 | 83 | 1017.2 |
| 20260906061510 | 18 | 15 | 33.8 | 59.5 | 0.03 | 0.03 | 0.03 | 85 | 1017.0 |
| 20260906061009 | 18 | 14 | 35.4 | 59.5 | 0.03 | 0.03 | 0.03 | 86 | 1017.4 |
| 20260906060509 | 17 | 7 | 38.6 | 57.9 | 0.03 | 0.03 | 0.03 | 86 | 1017.5 |
| 20260906060010 | 17 | 5 | 37.0 | 62.8 | 0.03 | 0.03 | 0.03 | 89 | 1017.6 |
| 20260906055509 | 17 | 3 | 38.6 | 64.4 | 0.03 | 0.03 | 0.03 | 90 | 1017.5 |
| 20260906055011 | 17 | 357 | 41.8 | 72.4 | 0.03 | 0.03 | 0.03 | 90 | 1017.8 |
| 20260906054009 | 18 | 348 | 45.1 | 66.0 | 0.03 | 0.03 | 0.03 | 90 | 1017.5 |
| 20260906053509 | 18 | 353 | 40.2 | 56.3 | 0.03 | 0.03 | 0.03 | 90 | 1017.4 |
| 20260906052508 | 19 | 331 | 33.8 | 57.9 | 0.00 | 0.00 | 0.00 | 88 | 1017.5 |
| 20260906052008 | 20 | 330 | 40.2 | 70.8 | 0.00 | 0.00 | 0.00 | 85 | 1017.5 |
| 20260906051508 | 22 | 325 | 45.1 | 70.8 | 0.00 | 0.00 | 0.00 | 74 | 1017.7 |
| 20260906050509 | 23 | 288 | 11.3 | 32.2 | 0.00 | 0.00 | 0.00 | 66 | 1016.2 |
| 20260906050008 | 23 | 324 | 11.3 | 33.8 | 0.00 | 0.00 | 0.00 | 67 | 1016.1 |
| 20260906045510 | 23 | 333 | 22.5 | 33.8 | 0.00 | 0.00 | 0.00 | 64 | 1015.9 |
| 20260906045009 | 25 | 347 | 1.6 | 14.5 | 0.00 | 0.00 | 0.00 | 63 | 1015.3 |
| 20260906044008 | 24 | 146 | 11.3 | 14.5 | 0.00 | 0.00 | 0.00 | 62 | 1014.7 |
| 20260906043009 | 24 | 143 | 14.5 | 19.3 | 0.00 | 0.00 | 0.00 | 63 | 1014.5 |
| 20260906042510 | 24 | 140 | 14.5 | 19.3 | 0.00 | 0.00 | 0.00 | 62 | 1014.5 |
| 20260906042008 | 24 | 139 | 12.9 | 16.1 | 0.00 | 0.00 | 0.00 | 62 | 1014.5 |
| 20260906041508 | 24 | 137 | 11.3 | 16.1 | 0.00 | 0.00 | 0.00 | 62 | 1014.3 |
| 20260906041010 | 24 | 127 | 12.9 | 16.1 | 0.00 | 0.00 | 0.00 | 62 | 1014.4 |
| 20260906040508 | 25 | 110 | 12.9 | 20.9 | 0.00 | 0.00 | 0.00 | 61 | 1014.6 |
| 20260906040009 | 25 | 98 | 14.5 | 20.9 | 0.00 | 0.00 | 0.00 | 61 | 1014.7 |
| 20260906035508 | 25 | 97 | 14.5 | 20.9 | 0.00 | 0.00 | 0.00 | 60 | 1014.7 |
| 20260906034509 | 25 | 95 | 14.5 | 20.9 | 0.00 | 0.00 | 0.00 | 59 | 1014.7 |
| 20260906034008 | 25 | 98 | 14.5 | 20.9 | 0.00 | 0.00 | 0.00 | 58 | 1014.7 |
| 20260906033508 | 25 | 102 | 14.5 | 19.3 | 0.00 | 0.00 | 0.00 | 58 | 1014.7 |
| 20260906033008 | 25 | 97 | 12.9 | 19.3 | 0.00 | 0.00 | 0.00 | 58 | 1014.7 |
| 20260906032008 | 25 | 99 | 14.5 | 24.1 | 0.00 | 0.00 | 0.00 | 59 | 1014.6 |
| 20260906031508 | 25 | 89 | 14.5 | 24.1 | 0.00 | 0.00 | 0.00 | 60 | 1014.5 |
| 20260906031008 | 25 | 85 | 19.3 | 24.1 | 0.00 | 0.00 | 0.00 | 60 | 1014.2 |
| 20260906030508 | 25 | 77 | 14.5 | 25.7 | 0.00 | 0.00 | 0.00 | 60 | 1014.0 |
| 20260906030008 | 24 | 76 | 16.1 | 25.7 | 0.00 | 0.00 | 0.00 | 62 | 1014.0 |
| 20260906025508 | 23 | 67 | 14.5 | 22.5 | 0.00 | 0.00 | 0.00 | 65 | 1014.0 |
| 20260906024508 | 23 | 74 | 12.9 | 19.3 | 0.00 | 0.00 | 0.00 | 66 | 1013.9 |
| 20260906024008 | 23 | 75 | 11.3 | 14.5 | 0.00 | 0.00 | 0.00 | 66 | 1014.0 |
| 20260906023508 | 23 | 69 | 14.5 | 14.5 | 0.00 | 0.00 | 0.00 | 65 | 1014.1 |
| 20260906023008 | 24 | 62 | 12.9 | 14.5 | 0.00 | 0.00 | 0.00 | 65 | 1014.2 |
| 20260906022509 | 24 | 69 | 11.3 | 14.5 | 0.00 | 0.00 | 0.00 | 64 | 1014.0 |
| 20260906022008 | 24 | 72 | 12.9 | 14.5 | 0.00 | 0.00 | 0.00 | 64 | 1013.9 |
| 20260906021508 | 25 | 71 | 11.3 | 16.1 | 0.00 | 0.00 | 0.00 | 62 | 1013.9 |
| 20260906020508 | 25 | 66 | 12.9 | 14.5 | 0.00 | 0.00 | 0.00 | 61 | 1013.9 |
| 20260906020008 | 26 | 58 | 11.3 | 12.9 | 0.00 | 0.00 | 0.00 | 59 | 1013.8 |
| 20260906015008 | 26 | 41 | 9.7 | 14.5 | 0.00 | 0.00 | 0.00 | 55 | 1013.8 |
| 20260906014508 | 26 | 94 | 11.3 | 14.5 | 0.00 | 0.00 | 0.00 | 54 | 1013.7 |
| 20260906014007 | 27 | 109 | 11.3 | 14.5 | 0.00 | 0.00 | 0.00 | 53 | 1013.6 |
| 20260906013008 | 27 | 120 | 12.9 | 19.3 | 0.00 | 0.00 | 0.00 | 51 | 1013.5 |
| 20260906012508 | 27 | 127 | 14.5 | 19.3 | 0.00 | 0.00 | 0.00 | 50 | 1013.5 |
| 20260906012007 | 27 | 126 | 14.5 | 19.3 | 0.00 | 0.00 | 0.00 | 50 | 1013.5 |
| 20260906011507 | 27 | 126 | 14.5 | 20.9 | 0.00 | 0.00 | 0.00 | 49 | 1013.4 |
| 20260906011008 | 28 | 125 | 14.5 | 20.9 | 0.00 | 0.00 | 0.00 | 49 | 1013.5 |
| 20260906010509 | 28 | 122 | 14.5 | 20.9 | 0.00 | 0.00 | 0.00 | 49 | 1013.6 |
| 20260906005507 | 28 | 117 | 12.9 | 19.3 | 0.00 | 0.00 | 0.00 | 49 | 1013.7 |
| 20260906005008 | 28 | 110 | 12.9 | 16.1 | 0.00 | 0.00 | 0.00 | 48 | 1013.8 |
| 20260906004509 | 28 | 108 | 11.3 | 16.1 | 0.00 | 0.00 | 0.00 | 47 | 1013.9 |
| 20260906004008 | 28 | 117 | 11.3 | 16.1 | 0.00 | 0.00 | 0.00 | 46 | 1013.9 |
| 20260906003508 | 29 | 123 | 11.3 | 20.9 | 0.00 | 0.00 | 0.00 | 44 | 1013.8 |
| 20260906003008 | 29 | 135 | 14.5 | 22.5 | 0.00 | 0.00 | 0.00 | 42 | 1013.7 |
| 20260906002508 | 29 | 134 | 16.1 | 22.5 | 0.00 | 0.00 | 0.00 | 42 | 1013.6 |
| 20260906002008 | 30 | 132 | 19.3 | 25.7 | 0.00 | 0.00 | 0.00 | 42 | 1013.4 |
| 20260906001507 | 30 | 135 | 19.3 | 29.0 | 0.00 | 0.00 | 0.00 | 40 | 1013.3 |
| 20260906001007 | 30 | 137 | 20.9 | 29.0 | 0.00 | 0.00 | 0.00 | 39 | 1013.2 |
| 20260906000007 | 30 | 147 | 17.7 | 33.8 | 0.00 | 0.00 | 0.00 | 38 | 1013.2 |
| 20260905235507 | 30 | 146 | 19.3 | 40.2 | 0.00 | 0.00 | 0.00 | 38 | 1013.0 |
| 20260905235007 | 30 | 147 | 22.5 | 40.2 | 0.00 | 0.00 | 0.00 | 38 | 1012.9 |
| 20260905234509 | 30 | 145 | 20.9 | 32.2 | 0.00 | 0.00 | 0.00 | 38 | 1012.5 |
| 20260905234008 | 31 | 146 | 24.1 | 35.4 | 0.00 | 0.00 | 0.00 | 37 | 1012.2 |
| 20260905233508 | 31 | 144 | 25.7 | 40.2 | 0.00 | 0.00 | 0.00 | 37 | 1012.1 |
| 20260905233008 | 31 | 143 | 25.7 | 40.2 | 0.00 | 0.00 | 0.00 | 36 | 1012.1 |
| 20260905232507 | 31 | 145 | 20.9 | 51.5 | 0.00 | 0.00 | 0.00 | 36 | 1012.1 |
| 20260905231008 | 32 | 161 | 27.4 | 49.9 | 0.00 | 0.00 | 0.00 | 33 | 1012.3 |
| 20260905230507 | 32 | 148 | 27.4 | 49.9 | 0.00 | 0.00 | 0.00 | 32 | 1012.2 |
| 20260905230008 | 32 | 159 | 29.0 | 49.9 | 0.00 | 0.00 | 0.00 | 32 | 1012.2 |
| 20260905225508 | 32 | 150 | 22.5 | 41.8 | 0.00 | 0.00 | 0.00 | 32 | 1011.9 |
| 20260905225007 | 32 | 151 | 25.7 | 41.8 | 0.00 | 0.00 | 0.00 | 32 | 1011.7 |
| 20260905224508 | 32 | 153 | 25.7 | 51.5 | 0.00 | 0.00 | 0.00 | 33 | 1011.7 |
| 20260905223507 | 32 | 154 | 32.2 | 49.9 | 0.00 | 0.00 | 0.00 | 32 | 1011.9 |
| 20260905223007 | 33 | 155 | 30.6 | 46.7 | 0.00 | 0.00 | 0.00 | 32 | 1012.0 |
| 20260905222507 | 33 | 154 | 27.4 | 49.9 | 0.00 | 0.00 | 0.00 | 32 | 1012.1 |
| 20260905222007 | 34 | 150 | 32.2 | 49.9 | 0.00 | 0.00 | 0.00 | 29 | 1011.9 |
| 20260905221507 | 35 | 145 | 29.0 | 51.5 | 0.00 | 0.00 | 0.00 | 28 | 1012.0 |
| 20260905221007 | 35 | 148 | 29.0 | 53.1 | 0.00 | 0.00 | 0.00 | 28 | 1011.8 |
| 20260905220507 | 35 | 136 | 25.7 | 53.1 | 0.00 | 0.00 | 0.00 | 28 | 1011.7 |
| 20260905215507 | 35 | 139 | 29.0 | 41.8 | 0.00 | 0.00 | 0.00 | 27 | 1011.9 |
| 20260905215007 | 34 | 141 | 25.7 | 37.0 | 0.00 | 0.00 | 0.00 | 30 | 1012.0 |
| 20260905214507 | 33 | 140 | 25.7 | 45.1 | 0.00 | 0.00 | 0.00 | 31 | 1012.0 |
| 20260905214007 | 33 | 134 | 24.1 | 45.1 | 0.00 | 0.00 | 0.00 | 31 | 1012.0 |
| 20260905213507 | 35 | 152 | 22.5 | 41.8 | 0.00 | 0.00 | 0.00 | 30 | 1012.1 |
| 20260905213007 | 34 | 141 | 29.0 | 41.8 | 0.00 | 0.00 | 0.00 | 30 | 1012.2 |
| 20260905212507 | 33 | 126 | 20.9 | 35.4 | 0.00 | 0.00 | 0.00 | 33 | 1012.3 |
| 20260905211507 | 33 | 109 | 20.9 | 35.4 | 0.00 | 0.00 | 0.00 | 35 | 1012.5 |
| 20260905211007 | 33 | 119 | 22.5 | 35.4 | 0.00 | 0.00 | 0.00 | 34 | 1012.4 |
| 20260905210007 | 33 | 122 | 25.7 | 35.4 | 0.00 | 0.00 | 0.00 | 36 | 1012.7 |
| 20260905205506 | 33 | 120 | 22.5 | 35.4 | 0.00 | 0.00 | 0.00 | 35 | 1012.8 |
| 20260905205007 | 33 | 121 | 27.4 | 35.4 | 0.00 | 0.00 | 0.00 | 35 | 1012.9 |
| 20260905204507 | 33 | 126 | 24.1 | 35.4 | 0.00 | 0.00 | 0.00 | 35 | 1012.9 |